Waarnemingen

Advertentie
Mijn weer
J6-A, Nederland (6211): temperatuur & dauwpunt: 22.05.2017 06:00:00 - 28.05.2017 06:00:00 (CEST)J6-A, Nederland (6211): windsnelheid & windstoten: 22.05.2017 06:00:00 - 28.05.2017 06:00:00 (CEST)J6-A, Nederland (6211): windrichting: 22.05.2017 06:00:00 - 28.05.2017 06:00:00 (CEST)J6-A, Nederland (6211): luchtdruk: 22.05.2017 06:00:00 - 28.05.2017 06:00:00 (CEST)J6-A, Nederland (6211): zicht: 22.05.2017 06:00:00 - 28.05.2017 06:00:00 (CEST)
Datum & Tijd tt [°C] td [°C] ff [km/u] ff [kn] fx [km/u] fx [kn] dd ppp [hPa] vv [km]
28.05.2017 06:00:00 13,1 11,4 50 27 47 25 ZZW 1014,6 10
28.05.2017 05:00:00 13,4 11,6 44 24 47 25 ZZW 1014,5 10
28.05.2017 04:00:00 13,4 11,9 41 22 40 21 ZZW 1014,9 10
28.05.2017 03:00:00 13,7 11,8 37 20 40 21 ZW 1015,0 10
28.05.2017 02:00:00 13,9 11,8 41 22 40 21 ZZW 1014,9 10
28.05.2017 01:00:00 14,3 11,9 35 19 43 23 ZZW 1014,6 10
28.05.2017 00:00:00 13,6 11,8 42 23 43 23 ZZW 1014,3 10
27.05.2017 23:00:00 13,6 12,0 31 17 40 21 ZZW 1014,2 10
27.05.2017 22:00:00 14,1 12,2 42 23 43 23 ZW 1013,6 10
27.05.2017 21:00:00 14,5 12,3 46 25 43 23 ZZW 1013,5 10
27.05.2017 20:00:00 15,3 12,7 46 25 50 27 Z 1012,9 10
27.05.2017 19:00:00 15,9 13,3 48 26 47 25 Z 1012,9 10
27.05.2017 18:00:00 15,6 12,5 42 23 43 23 Z 1013,2 10
27.05.2017 17:00:00 16,4 12,5 50 27 43 23 ZZO 1013,0 10
27.05.2017 16:00:00 16,4 12,4 42 23 40 21 ZO 1012,9 10
27.05.2017 15:00:00 16,0 12,3 46 25 43 23 ZZO 1013,9 10
27.05.2017 14:00:00 15,4 12,3 48 26 54 29 ZO 1015,0 10
27.05.2017 13:00:00 15,5 12,4 54 29 54 29 ZO 1014,6 10
27.05.2017 12:00:00 15,5 12,3 55 30 50 27 OZO 1014,7 10
27.05.2017 11:00:00 15,1 12,4 52 28 47 25 OZO 1014,9 10
27.05.2017 10:00:00 15,0 12,4 52 28 50 27 OZO 1015,4 10
27.05.2017 09:00:00 14,8 12,3 52 28 50 27 OZO 1015,9 10
27.05.2017 08:00:00 14,8 12,4 54 29 54 29 OZO 1016,0 10
27.05.2017 07:00:00 14,6 12,5 57 31 54 29 OZO 1016,1 10
27.05.2017 06:00:00 14,9 12,7 52 28 54 29 OZO 1016,5 10
27.05.2017 05:00:00 14,2 12,5 52 28 50 27 OZO 1016,8 10
27.05.2017 04:00:00 14,3 12,1 54 29 58 31 OZO 1017,3 10
27.05.2017 03:00:00 14,4 11,7 55 30 58 31 OZO 1017,4 10
27.05.2017 02:00:00 14,3 11,4 54 29 50 27 OZO 1017,7 10
27.05.2017 01:00:00 14,3 11,4 52 28 50 27 OZO 1018,3 10
27.05.2017 00:00:00 14,4 11,5 50 27 47 25 OZO 1018,5 10
26.05.2017 23:00:00 14,4 11,7 50 27 47 25 OZO 1018,9 10
26.05.2017 22:00:00 14,5 11,7 46 25 47 25 O 1019,4 10
26.05.2017 21:00:00 15,0 12,0 41 22 40 21 O 1019,6 10
26.05.2017 20:00:00 15,4 12,3 35 19 36 19 O 1020,0 10
26.05.2017 19:00:00 15,6 12,6 34 18 32 18 O 1020,6 10
26.05.2017 18:00:00 15,7 12,8 34 18 32 18 O 1021,1 10
26.05.2017 17:00:00 15,3 13,3 37 20 36 19 OZO 1021,3 10
26.05.2017 16:00:00 15,6 13,4 24 13 29 16 O 1021,9 10
26.05.2017 15:00:00 15,1 13,1 26 14 29 16 OZO 1022,3 10
26.05.2017 14:00:00 14,2 12,8 26 14 29 16 OZO 1022,9 10
26.05.2017 13:00:00 14,0 12,7 24 13 25 14 ZO 1023,3 10
26.05.2017 12:00:00 14,0 12,5 26 14 25 14 ZO 1023,6 10
26.05.2017 11:00:00 13,9 12,2 28 15 29 16 ZO 1023,8 10
26.05.2017 10:00:00 13,5 12,0 29 16 29 16 OZO 1023,9 10
26.05.2017 09:00:00 13,2 11,8 31 17 29 16 OZO 1023,8 10
26.05.2017 08:00:00 13,5 12,1 29 16 29 16 OZO 1023,5 10
26.05.2017 07:00:00 13,8 12,3 29 16 29 16 OZO 1023,4 10
26.05.2017 06:00:00 13,9 11,8 26 14 25 14 OZO 1023,6 10
26.05.2017 05:00:00 14,1 11,5 29 16 25 14 OZO 1023,5 10
26.05.2017 04:00:00 14,4 12,3 24 13 25 14 O 1023,5 10
26.05.2017 03:00:00 14,5 12,2 21 11 25 14 O 1023,7 10
26.05.2017 02:00:00 14,6 11,5 21 11 25 14 O 1023,9 10
26.05.2017 01:00:00 14,5 11,1 21 11 25 14 - 1024,3 10
26.05.2017 00:00:00 14,1 11,7 5 3 14 8 - 1024,4 10
25.05.2017 23:00:00 14,0 12,0 9 5 14 8 ZZO 1024,4 10
25.05.2017 22:00:00 14,1 12,0 5 3 11 6 ZZO 1024,3 10
25.05.2017 21:00:00 14,5 11,9 9 5 11 6 ZZO 1024,3 10
25.05.2017 20:00:00 15,8 12,3 9 5 11 6 ZZO 1024,6 10
25.05.2017 19:00:00 15,0 12,6 11 6 11 6 ZZO 1024,8 10
25.05.2017 18:00:00 14,8 12,5 11 6 11 6 ZZO 1025,3 10
25.05.2017 17:00:00 15,3 12,4 9 5 11 6 ZZO 1025,5 10
25.05.2017 16:00:00 14,9 12,3 11 6 11 6 ZZW 1025,8 10
25.05.2017 15:00:00 14,6 12,4 9 5 7 4 Z 1026,0 10
25.05.2017 14:00:00 14,2 12,1 9 5 7 4 Z 1026,2 10
25.05.2017 13:00:00 13,8 11,9 9 5 7 4 Z 1026,2 10
25.05.2017 12:00:00 12,7 11,8 9 5 11 6 ZZW 1026,2 10
25.05.2017 11:00:00 12,7 11,7 9 5 11 6 ZZW 1025,9 10
25.05.2017 10:00:00 12,8 10,9 4 2 7 4 ZW 1025,7 10
25.05.2017 09:00:00 12,1 11,7 4 2 7 4 - 1025,8 10
25.05.2017 08:00:00 12,0 11,9 8 4 7 4 WNW 1025,8 10
25.05.2017 07:00:00 11,9 11,6 8 4 7 4 W 1025,5 10
25.05.2017 06:00:00 12,0 11,5 9 5 11 6 WZW 1025,0 10
25.05.2017 05:00:00 12,2 11,4 5 3 7 4 W 1025,0 10
25.05.2017 04:00:00 12,2 10,8 9 5 11 6 WNW 1025,4 10
25.05.2017 03:00:00 11,7 11,3 8 4 7 4 W 1025,6 10
25.05.2017 02:00:00 11,6 11,1 4 2 4 2 W 1025,7 10
25.05.2017 01:00:00 12,3 11,1 2 1 4 2 NW 1025,8 10
25.05.2017 00:00:00 12,2 11,2 2 1 4 2 N 1025,7 10
24.05.2017 23:00:00 12,1 11,4 8 4 7 4 NW 1025,7 10
24.05.2017 22:00:00 12,3 11,5 11 6 11 6 NW 1025,4 10
24.05.2017 21:00:00 12,2 11,5 13 7 18 10 NW 1025,2 10
24.05.2017 20:00:00 12,2 11,4 21 11 22 12 NW 1025,2 10
24.05.2017 19:00:00 12,1 11,4 26 14 29 16 NW 1025,1 10
24.05.2017 18:00:00 12,1 11,4 35 19 32 18 NW 1024,9 10
24.05.2017 17:00:00 12,2 11,5 34 18 32 18 NW 1025,1 10
24.05.2017 16:00:00 12,2 11,4 31 17 29 16 WNW 1025,0 10
24.05.2017 15:00:00 12,2 11,3 35 19 36 19 NW 1024,9 10
24.05.2017 14:00:00 12,3 11,4 39 21 36 19 NW 1024,5 10
24.05.2017 13:00:00 12,4 11,3 41 22 40 21 NW 1024,3 10
24.05.2017 12:00:00 12,2 10,9 31 17 32 18 WNW 1024,2 10
24.05.2017 11:00:00 12,5 10,3 34 18 32 18 WNW 1023,8 10
24.05.2017 10:00:00 12,1 10,3 24 13 22 12 W 1023,3 10
24.05.2017 09:00:00 12,0 10,4 21 11 25 14 W 1023,3 10
24.05.2017 08:00:00 11,7 10,8 18 10 22 12 W 1023,1 10
24.05.2017 07:00:00 11,5 10,9 13 7 14 8 ZW 1022,6 10
24.05.2017 06:00:00 11,6 10,5 11 6 11 6 ZZW 1022,2 10
24.05.2017 05:00:00 11,9 9,9 8 4 11 6 ZZW 1022,1 10
24.05.2017 04:00:00 11,8 9,1 11 6 11 6 ZZW 1022,3 10
24.05.2017 03:00:00 12,1 7,9 13 7 14 8 Z 1022,4 10
24.05.2017 02:00:00 12,0 8,1 13 7 14 8 Z 1022,7 10
24.05.2017 01:00:00 12,8 3,8 15 8 14 8 ZZW 1022,6 10
24.05.2017 00:00:00 12,2 7,6 15 8 14 8 Z 1022,7 10
23.05.2017 23:00:00 12,0 8,3 16 9 18 10 ZZW 1022,7 10
23.05.2017 22:00:00 11,6 9,4 11 6 - - ZZW 1022,4 10
23.05.2017 21:00:00 12,8 6,5 5 3 7 4 WZW 1021,8 10
23.05.2017 20:00:00 12,3 7,9 4 2 7 4 W 1021,7 10
23.05.2017 19:00:00 11,9 8,8 9 5 14 8 WNW 1021,5 10
23.05.2017 18:00:00 11,7 8,8 16 9 18 10 WNW 1021,4 10
23.05.2017 17:00:00 11,5 9,2 21 11 22 12 W 1020,9 10
23.05.2017 16:00:00 11,3 9,9 24 13 25 14 W 1020,8 10
23.05.2017 15:00:00 11,2 9,5 28 15 29 16 W 1020,6 10
23.05.2017 14:00:00 11,2 8,7 29 16 29 16 WNW 1019,9 10
23.05.2017 13:00:00 11,1 8,7 31 17 29 16 WNW 1019,2 10
23.05.2017 12:00:00 11,1 8,6 29 16 36 19 WNW 1018,4 10
23.05.2017 11:00:00 11,2 8,5 41 22 40 21 WNW 1017,5 10
23.05.2017 10:00:00 11,2 9,5 42 23 40 21 WNW 1016,7 10
23.05.2017 09:00:00 11,3 10,1 44 24 43 23 WNW 1015,9 10
23.05.2017 08:00:00 11,6 10,0 44 24 43 23 WNW 1014,9 10
23.05.2017 07:00:00 12,1 9,9 48 26 47 25 WNW 1014,2 10
23.05.2017 06:00:00 12,6 10,3 46 25 47 25 WNW 1013,4 10
23.05.2017 05:00:00 12,7 10,2 46 25 43 23 WZW 1013,2 10
23.05.2017 04:00:00 14,6 9,0 39 21 40 21 ZZW 1013,0 10
23.05.2017 03:00:00 13,9 9,5 35 19 32 18 Z 1013,1 10
23.05.2017 02:00:00 13,9 10,0 31 17 29 16 Z 1013,7 10
23.05.2017 01:00:00 13,5 10,7 31 17 32 18 ZZO 1014,2 10
23.05.2017 00:00:00 13,9 10,7 37 20 36 19 ZO 1014,2 10
22.05.2017 23:00:00 14,0 11,0 34 18 32 18 OZO 1014,8 10
22.05.2017 22:00:00 14,2 11,0 35 19 32 18 OZO 1015,0 10
22.05.2017 21:00:00 14,6 10,6 31 17 29 16 ZO 1015,1 10
22.05.2017 20:00:00 15,5 10,9 35 19 32 18 OZO 1015,5 10
22.05.2017 19:00:00 14,3 11,0 31 17 29 16 OZO 1015,9 10
22.05.2017 18:00:00 15,4 11,4 28 15 29 16 OZO 1016,3 10
22.05.2017 17:00:00 13,4 11,0 26 14 29 16 ZO 1017,1 10
22.05.2017 16:00:00 13,4 10,9 31 17 29 16 ZO 1017,8 10
22.05.2017 15:00:00 13,8 11,1 29 16 29 16 ZO 1018,2 10
22.05.2017 14:00:00 13,6 10,9 26 14 29 16 ZO 1018,7 10
22.05.2017 13:00:00 13,3 10,7 29 16 29 16 ZO 1019,2 10
22.05.2017 12:00:00 12,6 10,7 34 18 32 18 ZO 1019,5 10
22.05.2017 11:00:00 12,4 10,5 35 19 36 19 ZO 1019,8 10
22.05.2017 10:00:00 12,2 10,4 34 18 32 18 ZO 1020,0 10
22.05.2017 09:00:00 12,1 10,1 34 18 32 18 OZO 1020,3 10
22.05.2017 08:00:00 12,2 10,0 34 18 32 18 OZO 1020,4 10
22.05.2017 07:00:00 12,6 9,6 35 19 36 19 OZO 1020,5 10
22.05.2017 06:00:00 12,5 10,3 37 20 36 19 OZO 1021,0 10

tt = temperatuur
td = dauwpunt
ff = windsnelheid
fx = windstoten
dd = windrichting
ppp = luchtdruk
vv = zicht

Weerstations in de omgeving